owner,sensor,date,latitude,longitude,vertical_datum,mass_concentration_of_oxygen_in_sea_water,qcFlag 
SCCF RECON,ioos:station:SCCF:51:1,2010-08-01T00:00:00Z,26.5545,-82.1715,1.765,6.47,1111122 
SCCF RECON,ioos:station:SCCF:51:1,2010-08-01T01:00:00Z,26.5545,-82.1715,1.711,6.49,1111122 
SCCF RECON,ioos:station:SCCF:51:1,2010-08-01T02:00:00Z,26.5545,-82.1715,1.668,6.51,1111122 
SCCF RECON,ioos:station:SCCF:51:1,2010-08-01T03:00:00Z,26.5545,-82.1715,1.65,6.51,1111122 
SCCF RECON,ioos:station:SCCF:51:1,2010-08-01T04:00:00Z,26.5545,-82.1715,1.66,6.49,1111122 
SCCF RECON,ioos:station:SCCF:51:1,2010-08-01T05:00:00Z,26.5545,-82.1715,1.71,6.48,1111122 
SCCF RECON,ioos:station:SCCF:51:1,2010-08-01T06:00:00Z,26.5545,-82.1715,1.77,6.26,1111122 
SCCF RECON,ioos:station:SCCF:51:1,2010-08-01T07:00:00Z,26.5545,-82.1715,1.883,5.96,1111122 
SCCF RECON,ioos:station:SCCF:51:1,2010-08-01T08:00:00Z,26.5545,-82.1715,1.979,5.75,1111122 
SCCF RECON,ioos:station:SCCF:51:1,2010-08-01T09:00:00Z,26.5545,-82.1715,2.001,5.65,1111122 
SCCF RECON,ioos:station:SCCF:51:1,2010-08-01T10:00:00Z,26.5545,-82.1715,1.982,5.58,1111122 
SCCF RECON,ioos:station:SCCF:51:1,2010-08-01T11:00:00Z,26.5545,-82.1715,1.94,5.74,1111122 
SCCF RECON,ioos:station:SCCF:51:1,2010-08-01T12:00:00Z,26.5545,-82.1715,1.86,5.99,1111122 
SCCF RECON,ioos:station:SCCF:51:1,2010-08-01T13:00:00Z,26.5545,-82.1715,1.788,6.18,1111122 
SCCF RECON,ioos:station:SCCF:51:1,2010-08-01T14:00:00Z,26.5545,-82.1715,1.714,6.17,1111122 
SCCF RECON,ioos:station:SCCF:51:1,2010-08-01T15:00:00Z,26.5545,-82.1715,1.65,6.44,1111122 
SCCF RECON,ioos:station:SCCF:51:1,2010-08-01T16:00:00Z,26.5545,-82.1715,1.609,6.56,1111122 
SCCF RECON,ioos:station:SCCF:51:1,2010-08-01T17:00:00Z,26.5545,-82.1715,1.61,6.54,1111122 
SCCF RECON,ioos:station:SCCF:51:1,2010-08-01T18:00:00Z,26.5545,-82.1715,1.655,6.55,1111122 
SCCF RECON,ioos:station:SCCF:51:1,2010-08-01T19:00:00Z,26.5545,-82.1715,1.719,6.49,1111122 
SCCF RECON,ioos:station:SCCF:51:1,2010-08-01T20:00:00Z,26.5545,-82.1715,1.799,6.47,1111122 
SCCF RECON,ioos:station:SCCF:51:1,2010-08-01T21:00:00Z,26.5545,-82.1715,1.866,6.42,1111122 
SCCF RECON,ioos:station:SCCF:51:1,2010-08-01T22:00:00Z,26.5545,-82.1715,1.883,6.45,1111122 
SCCF RECON,ioos:station:SCCF:51:1,2010-08-01T23:00:00Z,26.5545,-82.1715,1.86,6.48,1111122 
SCCF RECON,ioos:station:SCCF:51:1,2010-08-02T00:00:00Z,26.5545,-82.1715,1.83,6.51,1111122 
SCCF RECON,ioos:station:SCCF:51:1,2010-08-02T01:00:00Z,26.5545,-82.1715,1.801,6.48,1111122 
SCCF RECON,ioos:station:SCCF:51:1,2010-08-02T02:00:00Z,26.5545,-82.1715,1.78,6.48,1111122 
SCCF RECON,ioos:station:SCCF:51:1,2010-08-02T03:00:00Z,26.5545,-82.1715,1.776,6.5,1111122 
SCCF RECON,ioos:station:SCCF:51:1,2010-08-02T04:00:00Z,26.5545,-82.1715,1.749,6.53,1111122 
SCCF RECON,ioos:station:SCCF:51:1,2010-08-02T05:00:00Z,26.5545,-82.1715,1.77,6.52,1111122 
SCCF RECON,ioos:station:SCCF:51:1,2010-08-02T06:00:00Z,26.5545,-82.1715,1.83,6.54,1111122 
SCCF RECON,ioos:station:SCCF:51:1,2010-08-02T07:00:00Z,26.5545,-82.1715,1.917,5.79,1111122 
SCCF RECON,ioos:station:SCCF:51:1,2010-08-02T08:00:00Z,26.5545,-82.1715,2.0,5.77,1111122 
SCCF RECON,ioos:station:SCCF:51:1,2010-08-02T09:00:00Z,26.5545,-82.1715,2.1,5.53,1111122 
SCCF RECON,ioos:station:SCCF:51:1,2010-08-02T10:00:00Z,26.5545,-82.1715,2.12,5.34,1111122 
SCCF RECON,ioos:station:SCCF:51:1,2010-08-02T11:00:00Z,26.5545,-82.1715,2.088,5.03,1111122 
SCCF RECON,ioos:station:SCCF:51:1,2010-08-02T12:00:00Z,26.5545,-82.1715,2.03,5.24,1111122 
SCCF RECON,ioos:station:SCCF:51:1,2010-08-02T13:00:00Z,26.5545,-82.1715,1.948,4.8,1111122 
SCCF RECON,ioos:station:SCCF:51:1,2010-08-02T14:00:00Z,26.5545,-82.1715,1.845,5.05,1111122 
SCCF RECON,ioos:station:SCCF:51:1,2010-08-02T15:00:00Z,26.5545,-82.1715,1.747,5.41,1111122 
SCCF RECON,ioos:station:SCCF:51:1,2010-08-02T16:00:00Z,26.5545,-82.1715,1.67,6.03,1111122 
SCCF RECON,ioos:station:SCCF:51:1,2010-08-02T17:00:00Z,26.5545,-82.1715,1.62,6.33,1111122 
SCCF RECON,ioos:station:SCCF:51:1,2010-08-02T18:00:00Z,26.5545,-82.1715,1.63,6.54,1111122 
SCCF RECON,ioos:station:SCCF:51:1,2010-08-02T19:00:00Z,26.5545,-82.1715,1.669,6.54,1111122 
SCCF RECON,ioos:station:SCCF:51:1,2010-08-02T20:00:00Z,26.5545,-82.1715,1.722,6.52,1111122 
SCCF RECON,ioos:station:SCCF:51:1,2010-08-02T21:00:00Z,26.5545,-82.1715,1.787,6.5,1111122 
SCCF RECON,ioos:station:SCCF:51:1,2010-08-02T22:00:00Z,26.5545,-82.1715,1.83,5.95,1111122 
SCCF RECON,ioos:station:SCCF:51:1,2010-08-02T23:00:00Z,26.5545,-82.1715,1.859,6.48,1111122 
SCCF RECON,ioos:station:SCCF:51:1,2010-08-03T00:00:00Z,26.5545,-82.1715,1.855,6.12,1111122 
SCCF RECON,ioos:station:SCCF:51:1,2010-08-03T01:00:00Z,26.5545,-82.1715,1.82,6.5,1111122 
SCCF RECON,ioos:station:SCCF:51:1,2010-08-03T02:00:00Z,26.5545,-82.1715,1.824,6.51,1111122 
SCCF RECON,ioos:station:SCCF:51:1,2010-08-03T03:00:00Z,26.5545,-82.1715,1.83,6.52,1111122 
SCCF RECON,ioos:station:SCCF:51:1,2010-08-03T04:00:00Z,26.5545,-82.1715,1.83,6.54,1111122 
SCCF RECON,ioos:station:SCCF:51:1,2010-08-03T05:00:00Z,26.5545,-82.1715,1.83,6.54,1111122 
SCCF RECON,ioos:station:SCCF:51:1,2010-08-03T06:00:00Z,26.5545,-82.1715,1.83,6.55,1111122 
SCCF RECON,ioos:station:SCCF:51:1,2010-08-03T07:00:00Z,26.5545,-82.1715,1.89,6.56,1111122 
SCCF RECON,ioos:station:SCCF:51:1,2010-08-03T08:00:00Z,26.5545,-82.1715,1.95,5.17,1111122 
SCCF RECON,ioos:station:SCCF:51:1,2010-08-03T09:00:00Z,26.5545,-82.1715,2.04,5.41,1111122 
SCCF RECON,ioos:station:SCCF:51:1,2010-08-03T10:00:00Z,26.5545,-82.1715,2.095,5.22,1111122 
SCCF RECON,ioos:station:SCCF:51:1,2010-08-03T11:00:00Z,26.5545,-82.1715,2.1,4.72,1111122 
SCCF RECON,ioos:station:SCCF:51:1,2010-08-03T12:00:00Z,26.5545,-82.1715,2.048,4.66,1111122 
SCCF RECON,ioos:station:SCCF:51:1,2010-08-03T13:00:00Z,26.5545,-82.1715,1.98,4.62,1111122 
SCCF RECON,ioos:station:SCCF:51:1,2010-08-03T14:00:00Z,26.5545,-82.1715,1.9,4.98,1111122 
SCCF RECON,ioos:station:SCCF:51:1,2010-08-03T15:00:00Z,26.5545,-82.1715,1.81,4.95,1111122 
SCCF RECON,ioos:station:SCCF:51:1,2010-08-03T16:00:00Z,26.5545,-82.1715,1.725,5.64,1111122 
SCCF RECON,ioos:station:SCCF:51:1,2010-08-03T17:00:00Z,26.5545,-82.1715,1.641,6.06,1111122 
SCCF RECON,ioos:station:SCCF:51:1,2010-08-03T18:00:00Z,26.5545,-82.1715,1.587,6.53,1111122 
SCCF RECON,ioos:station:SCCF:51:1,2010-08-03T19:00:00Z,26.5545,-82.1715,1.577,6.52,1111122 
SCCF RECON,ioos:station:SCCF:51:1,2010-08-03T20:00:00Z,26.5545,-82.1715,1.617,6.52,1111122 
SCCF RECON,ioos:station:SCCF:51:1,2010-08-03T21:00:00Z,26.5545,-82.1715,1.673,6.47,1111122 
SCCF RECON,ioos:station:SCCF:51:1,2010-08-03T22:00:00Z,26.5545,-82.1715,1.738,6.46,1111122 
SCCF RECON,ioos:station:SCCF:51:1,2010-08-03T23:00:00Z,26.5545,-82.1715,1.804,6.46,1111122 
SCCF RECON,ioos:station:SCCF:51:1,2010-08-04T00:00:00Z,26.5545,-82.1715,1.861,6.49,1111122 
SCCF RECON,ioos:station:SCCF:51:1,2010-08-04T01:00:00Z,26.5545,-82.1715,1.87,6.5,1111122 
SCCF RECON,ioos:station:SCCF:51:1,2010-08-04T02:00:00Z,26.5545,-82.1715,1.85,6.5,1111122 
SCCF RECON,ioos:station:SCCF:51:1,2010-08-04T03:00:00Z,26.5545,-82.1715,1.831,6.24,1111122 
SCCF RECON,ioos:station:SCCF:51:1,2010-08-04T04:00:00Z,26.5545,-82.1715,1.836,6.54,1111122 
SCCF RECON,ioos:station:SCCF:51:1,2010-08-04T05:00:00Z,26.5545,-82.1715,1.863,6.57,1111122 
SCCF RECON,ioos:station:SCCF:51:1,2010-08-04T06:00:00Z,26.5545,-82.1715,1.91,6.61,1111122 
SCCF RECON,ioos:station:SCCF:51:1,2010-08-04T07:00:00Z,26.5545,-82.1715,1.95,6.6,1111122 
SCCF RECON,ioos:station:SCCF:51:1,2010-08-04T08:00:00Z,26.5545,-82.1715,1.993,5.44,1111122 
SCCF RECON,ioos:station:SCCF:51:1,2010-08-04T09:00:00Z,26.5545,-82.1715,2.049,5.21,1111122 
SCCF RECON,ioos:station:SCCF:51:1,2010-08-04T10:00:00Z,26.5545,-82.1715,2.069,5.12,1111122 
SCCF RECON,ioos:station:SCCF:51:1,2010-08-04T11:00:00Z,26.5545,-82.1715,2.093,5.23,1111122 
SCCF RECON,ioos:station:SCCF:51:1,2010-08-04T12:00:00Z,26.5545,-82.1715,2.104,5.18,1111122 
SCCF RECON,ioos:station:SCCF:51:1,2010-08-04T13:00:00Z,26.5545,-82.1715,2.07,5.19,1111122 
SCCF RECON,ioos:station:SCCF:51:1,2010-08-04T14:00:00Z,26.5545,-82.1715,2.021,5.83,1111122 
SCCF RECON,ioos:station:SCCF:51:1,2010-08-04T15:00:00Z,26.5545,-82.1715,1.947,6.28,1111122 
SCCF RECON,ioos:station:SCCF:51:1,2010-08-04T16:00:00Z,26.5545,-82.1715,1.857,6.2,1111122 
SCCF RECON,ioos:station:SCCF:51:1,2010-08-04T17:00:00Z,26.5545,-82.1715,1.744,6.22,1111122 
SCCF RECON,ioos:station:SCCF:51:1,2010-08-04T18:00:00Z,26.5545,-82.1715,1.64,6.6,1111122 
SCCF RECON,ioos:station:SCCF:51:1,2010-08-04T19:00:00Z,26.5545,-82.1715,1.541,6.58,1111122 
SCCF RECON,ioos:station:SCCF:51:1,2010-08-04T20:00:00Z,26.5545,-82.1715,1.516,6.57,1111122 
SCCF RECON,ioos:station:SCCF:51:1,2010-08-04T21:00:00Z,26.5545,-82.1715,1.56,6.55,1111122 
SCCF RECON,ioos:station:SCCF:51:1,2010-08-04T22:00:00Z,26.5545,-82.1715,1.644,6.57,1111122 
SCCF RECON,ioos:station:SCCF:51:1,2010-08-04T23:00:00Z,26.5545,-82.1715,1.732,6.51,1111122 
SCCF RECON,ioos:station:SCCF:51:1,2010-08-05T00:00:00Z,26.5545,-82.1715,1.84,6.24,1111122 
SCCF RECON,ioos:station:SCCF:51:1,2010-08-05T01:00:00Z,26.5545,-82.1715,1.87,6.01,1111122 
SCCF RECON,ioos:station:SCCF:51:1,2010-08-05T02:00:00Z,26.5545,-82.1715,1.92,6.02,1111122 
SCCF RECON,ioos:station:SCCF:51:1,2010-08-05T03:00:00Z,26.5545,-82.1715,1.949,5.77,1111122 
SCCF RECON,ioos:station:SCCF:51:1,2010-08-05T04:00:00Z,26.5545,-82.1715,1.956,5.71,1111122 
SCCF RECON,ioos:station:SCCF:51:1,2010-08-05T05:00:00Z,26.5545,-82.1715,1.95,6.0,1111122 
SCCF RECON,ioos:station:SCCF:51:1,2010-08-05T06:00:00Z,26.5545,-82.1715,1.93,6.18,1111122 
SCCF RECON,ioos:station:SCCF:51:1,2010-08-05T07:00:00Z,26.5545,-82.1715,1.937,6.23,1111122 
SCCF RECON,ioos:station:SCCF:51:1,2010-08-05T08:00:00Z,26.5545,-82.1715,1.979,6.24,1111122 
SCCF RECON,ioos:station:SCCF:51:1,2010-08-05T09:00:00Z,26.5545,-82.1715,2.047,4.96,1111122 
SCCF RECON,ioos:station:SCCF:51:1,2010-08-05T10:00:00Z,26.5545,-82.1715,2.12,4.88,1111122 
SCCF RECON,ioos:station:SCCF:51:1,2010-08-05T11:00:00Z,26.5545,-82.1715,2.182,4.67,1111122 
SCCF RECON,ioos:station:SCCF:51:1,2010-08-05T12:00:00Z,26.5545,-82.1715,2.19,4.53,1111122 
SCCF RECON,ioos:station:SCCF:51:1,2010-08-05T13:00:00Z,26.5545,-82.1715,2.189,4.53,1111122 
SCCF RECON,ioos:station:SCCF:51:1,2010-08-05T14:00:00Z,26.5545,-82.1715,2.158,4.36,1111122 
SCCF RECON,ioos:station:SCCF:51:1,2010-08-05T15:00:00Z,26.5545,-82.1715,2.092,5.97,1111122 
SCCF RECON,ioos:station:SCCF:51:1,2010-08-05T16:00:00Z,26.5545,-82.1715,1.994,5.84,1111122 
SCCF RECON,ioos:station:SCCF:51:1,2010-08-05T17:00:00Z,26.5545,-82.1715,1.88,5.86,1111122 
SCCF RECON,ioos:station:SCCF:51:1,2010-08-05T18:00:00Z,26.5545,-82.1715,1.767,6.58,1111122 
SCCF RECON,ioos:station:SCCF:51:1,2010-08-05T19:00:00Z,26.5545,-82.1715,1.644,6.57,1111122 
SCCF RECON,ioos:station:SCCF:51:1,2010-08-05T20:00:00Z,26.5545,-82.1715,1.544,6.56,1111122 
SCCF RECON,ioos:station:SCCF:51:1,2010-08-05T21:00:00Z,26.5545,-82.1715,1.501,6.56,1111122 
SCCF RECON,ioos:station:SCCF:51:1,2010-08-05T22:00:00Z,26.5545,-82.1715,1.518,6.57,1111122 
SCCF RECON,ioos:station:SCCF:51:1,2010-08-05T23:00:00Z,26.5545,-82.1715,1.6,6.59,1111122 
SCCF RECON,ioos:station:SCCF:51:1,2010-08-06T00:00:00Z,26.5545,-82.1715,1.71,6.53,1111122 
SCCF RECON,ioos:station:SCCF:51:1,2010-08-06T01:00:00Z,26.5545,-82.1715,1.819,6.24,1111122 
SCCF RECON,ioos:station:SCCF:51:1,2010-08-06T02:00:00Z,26.5545,-82.1715,1.909,5.89,1111122 
SCCF RECON,ioos:station:SCCF:51:1,2010-08-06T03:00:00Z,26.5545,-82.1715,1.96,6.04,1111122 
SCCF RECON,ioos:station:SCCF:51:1,2010-08-06T04:00:00Z,26.5545,-82.1715,1.97,5.65,1111122 
SCCF RECON,ioos:station:SCCF:51:1,2010-08-06T05:00:00Z,26.5545,-82.1715,1.97,5.48,1111122 
SCCF RECON,ioos:station:SCCF:51:1,2010-08-06T06:00:00Z,26.5545,-82.1715,1.94,5.66,1111122 
SCCF RECON,ioos:station:SCCF:51:1,2010-08-06T07:00:00Z,26.5545,-82.1715,1.93,5.78,1111122 
SCCF RECON,ioos:station:SCCF:51:1,2010-08-06T08:00:00Z,26.5545,-82.1715,1.929,6.3,1111122 
SCCF RECON,ioos:station:SCCF:51:1,2010-08-06T09:00:00Z,26.5545,-82.1715,1.96,6.55,1111122 
SCCF RECON,ioos:station:SCCF:51:1,2010-08-06T10:00:00Z,26.5545,-82.1715,2.014,6.67,1111122 
SCCF RECON,ioos:station:SCCF:51:1,2010-08-06T11:00:00Z,26.5545,-82.1715,2.101,4.88,1111122 
SCCF RECON,ioos:station:SCCF:51:1,2010-08-06T12:00:00Z,26.5545,-82.1715,2.166,4.47,1111122 
SCCF RECON,ioos:station:SCCF:51:1,2010-08-06T13:00:00Z,26.5545,-82.1715,2.208,4.66,1111122 
SCCF RECON,ioos:station:SCCF:51:1,2010-08-06T14:00:00Z,26.5545,-82.1715,2.211,4.66,1111122 
SCCF RECON,ioos:station:SCCF:51:1,2010-08-06T15:00:00Z,26.5545,-82.1715,2.167,4.88,1111122 
SCCF RECON,ioos:station:SCCF:51:1,2010-08-06T16:00:00Z,26.5545,-82.1715,2.097,5.41,1111122 
SCCF RECON,ioos:station:SCCF:51:1,2010-08-06T17:00:00Z,26.5545,-82.1715,1.992,5.86,1111122 
SCCF RECON,ioos:station:SCCF:51:1,2010-08-06T18:00:00Z,26.5545,-82.1715,1.864,6.5,1111122 
SCCF RECON,ioos:station:SCCF:51:1,2010-08-06T19:00:00Z,26.5545,-82.1715,1.734,6.58,1111122 
SCCF RECON,ioos:station:SCCF:51:1,2010-08-06T20:00:00Z,26.5545,-82.1715,1.613,6.58,1111122 
SCCF RECON,ioos:station:SCCF:51:1,2010-08-06T21:00:00Z,26.5545,-82.1715,1.509,6.58,1111122 
SCCF RECON,ioos:station:SCCF:51:1,2010-08-06T22:00:00Z,26.5545,-82.1715,1.441,6.58,1111122 
SCCF RECON,ioos:station:SCCF:51:1,2010-08-06T23:00:00Z,26.5545,-82.1715,1.463,6.57,1111122 
SCCF RECON,ioos:station:SCCF:51:1,2010-08-07T00:00:00Z,26.5545,-82.1715,1.557,6.58,1111122 
SCCF RECON,ioos:station:SCCF:51:1,2010-08-07T01:00:00Z,26.5545,-82.1715,1.67,6.52,1111122 
SCCF RECON,ioos:station:SCCF:51:1,2010-08-07T02:00:00Z,26.5545,-82.1715,1.79,6.48,1111122 
SCCF RECON,ioos:station:SCCF:51:1,2010-08-07T03:00:00Z,26.5545,-82.1715,1.91,6.36,1111122 
SCCF RECON,ioos:station:SCCF:51:1,2010-08-07T04:00:00Z,26.5545,-82.1715,1.97,6.08,1111122 
SCCF RECON,ioos:station:SCCF:51:1,2010-08-07T05:00:00Z,26.5545,-82.1715,1.98,6.05,1111122 
SCCF RECON,ioos:station:SCCF:51:1,2010-08-07T06:00:00Z,26.5545,-82.1715,1.96,6.09,1111122 
SCCF RECON,ioos:station:SCCF:51:1,2010-08-07T07:00:00Z,26.5545,-82.1715,1.92,5.81,1111122 
SCCF RECON,ioos:station:SCCF:51:1,2010-08-07T08:00:00Z,26.5545,-82.1715,1.893,6.26,1111122 
SCCF RECON,ioos:station:SCCF:51:1,2010-08-07T09:00:00Z,26.5545,-82.1715,1.92,6.28,1111122 
SCCF RECON,ioos:station:SCCF:51:1,2010-08-07T10:00:00Z,26.5545,-82.1715,1.97,6.27,1111122 
SCCF RECON,ioos:station:SCCF:51:1,2010-08-07T11:00:00Z,26.5545,-82.1715,2.05,5.26,1111122 
SCCF RECON,ioos:station:SCCF:51:1,2010-08-07T12:00:00Z,26.5545,-82.1715,2.13,5.52,1111122 
SCCF RECON,ioos:station:SCCF:51:1,2010-08-07T13:00:00Z,26.5545,-82.1715,2.2,5.4,1111122 
SCCF RECON,ioos:station:SCCF:51:1,2010-08-07T14:00:00Z,26.5545,-82.1715,2.251,5.51,1111122 
SCCF RECON,ioos:station:SCCF:51:1,2010-08-07T15:00:00Z,26.5545,-82.1715,2.28,5.51,1111122 
SCCF RECON,ioos:station:SCCF:51:1,2010-08-07T16:00:00Z,26.5545,-82.1715,2.24,5.7,1111122 
SCCF RECON,ioos:station:SCCF:51:1,2010-08-07T17:00:00Z,26.5545,-82.1715,2.151,6.25,1111122 
SCCF RECON,ioos:station:SCCF:51:1,2010-08-07T18:00:00Z,26.5545,-82.1715,2.033,6.39,1111122 
SCCF RECON,ioos:station:SCCF:51:1,2010-08-07T19:00:00Z,26.5545,-82.1715,1.881,6.53,1111122 
SCCF RECON,ioos:station:SCCF:51:1,2010-08-07T20:00:00Z,26.5545,-82.1715,1.732,6.52,1111122 
SCCF RECON,ioos:station:SCCF:51:1,2010-08-07T21:00:00Z,26.5545,-82.1715,1.598,6.53,1111122 
SCCF RECON,ioos:station:SCCF:51:1,2010-08-07T22:00:00Z,26.5545,-82.1715,1.49,6.54,1111122 
SCCF RECON,ioos:station:SCCF:51:1,2010-08-07T23:00:00Z,26.5545,-82.1715,1.435,6.53,1111122 
SCCF RECON,ioos:station:SCCF:51:1,2010-08-08T00:00:00Z,26.5545,-82.1715,1.481,6.53,1111122 
SCCF RECON,ioos:station:SCCF:51:1,2010-08-08T01:00:00Z,26.5545,-82.1715,1.589,6.52,1111122 
SCCF RECON,ioos:station:SCCF:51:1,2010-08-08T02:00:00Z,26.5545,-82.1715,1.72,6.45,1111122 
SCCF RECON,ioos:station:SCCF:51:1,2010-08-08T03:00:00Z,26.5545,-82.1715,1.85,6.45,1111122 
SCCF RECON,ioos:station:SCCF:51:1,2010-08-08T04:00:00Z,26.5545,-82.1715,1.961,6.46,1111122 
SCCF RECON,ioos:station:SCCF:51:1,2010-08-08T05:00:00Z,26.5545,-82.1715,2.026,6.46,1111122 
SCCF RECON,ioos:station:SCCF:51:1,2010-08-08T06:00:00Z,26.5545,-82.1715,1.99,6.42,1111122 
SCCF RECON,ioos:station:SCCF:51:1,2010-08-08T07:00:00Z,26.5545,-82.1715,1.934,5.46,1111122 
SCCF RECON,ioos:station:SCCF:51:1,2010-08-08T08:00:00Z,26.5545,-82.1715,1.87,5.03,1111122 
SCCF RECON,ioos:station:SCCF:51:1,2010-08-08T09:00:00Z,26.5545,-82.1715,1.85,4.92,1111122 
SCCF RECON,ioos:station:SCCF:51:1,2010-08-08T10:00:00Z,26.5545,-82.1715,1.867,5.62,1111122 
SCCF RECON,ioos:station:SCCF:51:1,2010-08-08T11:00:00Z,26.5545,-82.1715,1.93,5.77,1111122 
SCCF RECON,ioos:station:SCCF:51:1,2010-08-08T12:00:00Z,26.5545,-82.1715,2.022,5.47,1111122 
SCCF RECON,ioos:station:SCCF:51:1,2010-08-08T13:00:00Z,26.5545,-82.1715,2.12,5.69,1111122 
SCCF RECON,ioos:station:SCCF:51:1,2010-08-08T14:00:00Z,26.5545,-82.1715,2.21,5.9,1111122 
SCCF RECON,ioos:station:SCCF:51:1,2010-08-08T15:00:00Z,26.5545,-82.1715,2.275,5.98,1111122 
SCCF RECON,ioos:station:SCCF:51:1,2010-08-08T16:00:00Z,26.5545,-82.1715,2.288,6.1,1111122 
SCCF RECON,ioos:station:SCCF:51:1,2010-08-08T17:00:00Z,26.5545,-82.1715,2.241,6.27,1111122 
SCCF RECON,ioos:station:SCCF:51:1,2010-08-08T18:00:00Z,26.5545,-82.1715,2.137,6.22,1111122 
SCCF RECON,ioos:station:SCCF:51:1,2010-08-08T19:00:00Z,26.5545,-82.1715,2.017,6.27,1111122 
SCCF RECON,ioos:station:SCCF:51:1,2010-08-08T20:00:00Z,26.5545,-82.1715,1.872,5.65,1111122 
SCCF RECON,ioos:station:SCCF:51:1,2010-08-08T21:00:00Z,26.5545,-82.1715,1.72,6.47,1111122 
SCCF RECON,ioos:station:SCCF:51:1,2010-08-08T22:00:00Z,26.5545,-82.1715,1.585,5.28,1111122 
SCCF RECON,ioos:station:SCCF:51:1,2010-08-08T23:00:00Z,26.5545,-82.1715,1.472,6.25,1111122 
SCCF RECON,ioos:station:SCCF:51:1,2010-08-09T00:00:00Z,26.5545,-82.1715,1.409,6.25,1111122 
SCCF RECON,ioos:station:SCCF:51:1,2010-08-09T01:00:00Z,26.5545,-82.1715,1.46,5.69,1111122 
SCCF RECON,ioos:station:SCCF:51:1,2010-08-09T02:00:00Z,26.5545,-82.1715,1.568,5.45,1111122 
SCCF RECON,ioos:station:SCCF:51:1,2010-08-09T03:00:00Z,26.5545,-82.1715,1.71,5.3,1111122 
SCCF RECON,ioos:station:SCCF:51:1,2010-08-09T04:00:00Z,26.5545,-82.1715,1.862,5.32,1111122 
SCCF RECON,ioos:station:SCCF:51:1,2010-08-09T05:00:00Z,26.5545,-82.1715,1.975,5.14,1111122 
SCCF RECON,ioos:station:SCCF:51:1,2010-08-09T06:00:00Z,26.5545,-82.1715,2.025,4.87,1111122 
SCCF RECON,ioos:station:SCCF:51:1,2010-08-09T07:00:00Z,26.5545,-82.1715,1.98,5.05,1111122 
SCCF RECON,ioos:station:SCCF:51:1,2010-08-09T08:00:00Z,26.5545,-82.1715,1.9,4.92,1111122 
SCCF RECON,ioos:station:SCCF:51:1,2010-08-09T09:00:00Z,26.5545,-82.1715,1.833,4.79,1111122 
SCCF RECON,ioos:station:SCCF:51:1,2010-08-09T10:00:00Z,26.5545,-82.1715,1.81,4.82,1111122 
SCCF RECON,ioos:station:SCCF:51:1,2010-08-09T11:00:00Z,26.5545,-82.1715,1.82,4.8,1111122 
SCCF RECON,ioos:station:SCCF:51:1,2010-08-09T12:00:00Z,26.5545,-82.1715,1.877,4.9,1111122 
SCCF RECON,ioos:station:SCCF:51:1,2010-08-09T13:00:00Z,26.5545,-82.1715,1.981,4.49,1111122 
SCCF RECON,ioos:station:SCCF:51:1,2010-08-09T14:00:00Z,26.5545,-82.1715,2.107,4.93,1111122 
SCCF RECON,ioos:station:SCCF:51:1,2010-08-09T15:00:00Z,26.5545,-82.1715,2.212,5.01,1111122 
SCCF RECON,ioos:station:SCCF:51:1,2010-08-09T16:00:00Z,26.5545,-82.1715,2.283,5.3,1111122 
SCCF RECON,ioos:station:SCCF:51:1,2010-08-09T17:00:00Z,26.5545,-82.1715,2.301,5.57,1111122 
SCCF RECON,ioos:station:SCCF:51:1,2010-08-09T18:00:00Z,26.5545,-82.1715,2.261,5.73,1111122 
SCCF RECON,ioos:station:SCCF:51:1,2010-08-09T19:00:00Z,26.5545,-82.1715,2.162,5.87,1111122 
SCCF RECON,ioos:station:SCCF:51:1,2010-08-09T20:00:00Z,26.5545,-82.1715,2.032,6.29,1111122 
SCCF RECON,ioos:station:SCCF:51:1,2010-08-09T21:00:00Z,26.5545,-82.1715,1.88,6.45,1111122 
SCCF RECON,ioos:station:SCCF:51:1,2010-08-09T22:00:00Z,26.5545,-82.1715,1.726,6.5,1111122 
SCCF RECON,ioos:station:SCCF:51:1,2010-08-09T23:00:00Z,26.5545,-82.1715,1.599,6.68,1111122 
SCCF RECON,ioos:station:SCCF:51:1,2010-08-10T00:00:00Z,26.5545,-82.1715,1.49,6.69,1111122 
SCCF RECON,ioos:station:SCCF:51:1,2010-08-10T01:00:00Z,26.5545,-82.1715,1.451,6.71,1111122 
SCCF RECON,ioos:station:SCCF:51:1,2010-08-10T02:00:00Z,26.5545,-82.1715,1.543,6.75,1111122 
SCCF RECON,ioos:station:SCCF:51:1,2010-08-10T03:00:00Z,26.5545,-82.1715,1.682,6.12,1111122 
SCCF RECON,ioos:station:SCCF:51:1,2010-08-10T04:00:00Z,26.5545,-82.1715,1.84,5.73,1111122 
SCCF RECON,ioos:station:SCCF:51:1,2010-08-10T05:00:00Z,26.5545,-82.1715,1.973,5.39,1111122 
SCCF RECON,ioos:station:SCCF:51:1,2010-08-10T06:00:00Z,26.5545,-82.1715,2.021,5.45,1111122 
SCCF RECON,ioos:station:SCCF:51:1,2010-08-10T07:00:00Z,26.5545,-82.1715,1.993,5.24,1111122 
SCCF RECON,ioos:station:SCCF:51:1,2010-08-10T08:00:00Z,26.5545,-82.1715,1.924,5.26,1111122 
SCCF RECON,ioos:station:SCCF:51:1,2010-08-10T09:00:00Z,26.5545,-82.1715,1.849,5.61,1111122 
SCCF RECON,ioos:station:SCCF:51:1,2010-08-10T10:00:00Z,26.5545,-82.1715,1.766,5.12,1111122 
SCCF RECON,ioos:station:SCCF:51:1,2010-08-10T11:00:00Z,26.5545,-82.1715,1.718,4.35,1111122 
SCCF RECON,ioos:station:SCCF:51:1,2010-08-10T12:00:00Z,26.5545,-82.1715,1.742,4.5,1111122 
SCCF RECON,ioos:station:SCCF:51:1,2010-08-10T13:00:00Z,26.5545,-82.1715,1.828,4.73,1111122 
SCCF RECON,ioos:station:SCCF:51:1,2010-08-10T14:00:00Z,26.5545,-82.1715,1.962,4.74,1111122 
SCCF RECON,ioos:station:SCCF:51:1,2010-08-10T15:00:00Z,26.5545,-82.1715,2.108,5.08,1111122 
SCCF RECON,ioos:station:SCCF:51:1,2010-08-10T16:00:00Z,26.5545,-82.1715,2.227,4.89,1111122 
SCCF RECON,ioos:station:SCCF:51:1,2010-08-10T17:00:00Z,26.5545,-82.1715,2.316,5.88,1111122 
SCCF RECON,ioos:station:SCCF:51:1,2010-08-10T18:00:00Z,26.5545,-82.1715,2.375,5.97,1111122 
SCCF RECON,ioos:station:SCCF:51:1,2010-08-10T19:00:00Z,26.5545,-82.1715,2.366,5.75,1111122 
SCCF RECON,ioos:station:SCCF:51:1,2010-08-10T20:00:00Z,26.5545,-82.1715,2.243,5.52,1111122 
SCCF RECON,ioos:station:SCCF:51:1,2010-08-10T21:00:00Z,26.5545,-82.1715,2.103,5.44,1111122 
SCCF RECON,ioos:station:SCCF:51:1,2010-08-10T22:00:00Z,26.5545,-82.1715,1.951,5.24,1111122 
SCCF RECON,ioos:station:SCCF:51:1,2010-08-10T23:00:00Z,26.5545,-82.1715,1.81,5.56,1111122 
SCCF RECON,ioos:station:SCCF:51:1,2010-08-11T00:00:00Z,26.5545,-82.1715,1.687,5.31,1111122 
SCCF RECON,ioos:station:SCCF:51:1,2010-08-11T01:00:00Z,26.5545,-82.1715,1.629,5.25,1111122 
SCCF RECON,ioos:station:SCCF:51:1,2010-08-11T02:00:00Z,26.5545,-82.1715,1.674,5.29,1111122 
SCCF RECON,ioos:station:SCCF:51:1,2010-08-11T03:00:00Z,26.5545,-82.1715,1.819,5.46,1111122 
SCCF RECON,ioos:station:SCCF:51:1,2010-08-11T04:00:00Z,26.5545,-82.1715,1.978,5.27,1111122 
SCCF RECON,ioos:station:SCCF:51:1,2010-08-11T05:00:00Z,26.5545,-82.1715,2.122,4.95,1111122 
SCCF RECON,ioos:station:SCCF:51:1,2010-08-11T06:00:00Z,26.5545,-82.1715,2.202,5.27,1111122 
SCCF RECON,ioos:station:SCCF:51:1,2010-08-11T07:00:00Z,26.5545,-82.1715,2.21,5.26,1111122 
SCCF RECON,ioos:station:SCCF:51:1,2010-08-11T08:00:00Z,26.5545,-82.1715,2.161,5.23,1111122 
SCCF RECON,ioos:station:SCCF:51:1,2010-08-11T09:00:00Z,26.5545,-82.1715,2.09,5.36,1111122 
SCCF RECON,ioos:station:SCCF:51:1,2010-08-11T10:00:00Z,26.5545,-82.1715,2.001,5.42,1111122 
SCCF RECON,ioos:station:SCCF:51:1,2010-08-11T11:00:00Z,26.5545,-82.1715,1.936,5.34,1111122 
SCCF RECON,ioos:station:SCCF:51:1,2010-08-11T12:00:00Z,26.5545,-82.1715,1.9,5.27,1111122 
SCCF RECON,ioos:station:SCCF:51:1,2010-08-11T13:00:00Z,26.5545,-82.1715,1.925,5.43,1111122 
SCCF RECON,ioos:station:SCCF:51:1,2010-08-11T14:00:00Z,26.5545,-82.1715,2.004,5.56,1111122 
SCCF RECON,ioos:station:SCCF:51:1,2010-08-11T15:00:00Z,26.5545,-82.1715,2.116,5.33,1111122 
SCCF RECON,ioos:station:SCCF:51:1,2010-08-11T16:00:00Z,26.5545,-82.1715,2.249,5.26,1111122 
SCCF RECON,ioos:station:SCCF:51:1,2010-08-11T17:00:00Z,26.5545,-82.1715,2.328,5.28,1111122 
SCCF RECON,ioos:station:SCCF:51:1,2010-08-11T18:00:00Z,26.5545,-82.1715,2.349,5.26,1111122 
SCCF RECON,ioos:station:SCCF:51:1,2010-08-11T19:00:00Z,26.5545,-82.1715,2.323,5.41,1111122 
SCCF RECON,ioos:station:SCCF:51:1,2010-08-11T20:00:00Z,26.5545,-82.1715,2.236,5.57,1111122 